Home > Weather > Zanzibar City > Past weeks

Flag for Tanzania Past Weather in Zanzibar City, Tanzania — Yesterday and Last 2 Weeks

Now
75 °F

Passing clouds.


Feels Like: 75 °F
Forecast: 74 / 82 °F
Wind: 6 mph from South

Location: Mombasa Airport

Current Time: Jul 28, 2016 at 12:12:11 AM

Latest Report: Jul 27, 2016 at 11:00 PM


Visibility: N/A

Pressure: 29.98 "Hg

Humidity: 83%

Dew Point: 70 °F

Location of Zanzibar CityLocation

Past Weather in Zanzibar City — Graph

°F

Zanzibar City Temperature Yesterday

Maximum temperature yesterday: 82 °F (at 12:00 PM)
Minimum temperature yesterday: 70 °F (at 6:00 AM)
Average temperature yesterday: 77 °F

High & Low Weather Summary for the Past Weeks

 TemperatureHumidityPressure
High84 °F (Jul 20, 2:00 PM)100% (Jul 25, 2:00 AM)30.15 "Hg (Jul 25, 2:00 AM)
Low68 °F (Jul 14, 6:00 AM)48% (Jul 23, 2:00 PM)29.92 "Hg (Jul 24, 4:00 PM)
Average77 °F79%30.02 "Hg
* Reported Jul 13 9:00 AM — Jul 27 10:00 PM, Zanzibar City, Weather by CustomWeather, © 2016

Note: Actual official high and low records may vary slightly from our data, if they occured in-between our weather recording intervals... More about our weather records

Advertising

Zanzibar City Weather History for the Previous 24 Hours

Scroll right to see more
 ConditionsComfort  
Time TempWeatherWind HumidityBarometerVisibility
10:00 PM
Wed, Jul 27
75 °FPassing clouds.6 mph83%29.98 "HgN/A
9:00 PM75 °FPassing clouds.7 mph83%29.98 "HgN/A
8:00 PM75 °FPassing clouds.6 mph83%29.95 "HgN/A
7:00 PM77 °FPassing clouds.6 mph79%29.95 "HgN/A
6:00 PM79 °FScattered clouds.7 mph74%29.95 "HgN/A
5:00 PM81 °FScattered clouds.9 mph70%29.95 "HgN/A
4:00 PM81 °FPartly sunny.9 mph66%29.95 "HgN/A
3:00 PM81 °FPartly sunny.13 mph66%29.95 "HgN/A
2:00 PM82 °FScattered clouds.12 mph62%29.98 "HgN/A
1:00 PM82 °FScattered clouds.10 mph62%30.01 "HgN/A
12:00 PM82 °FScattered clouds.12 mph62%30.04 "HgN/A
11:00 AM81 °FPartly sunny.12 mph62%30.04 "HgN/A
10:00 AM79 °FPartly sunny.8 mph70%30.04 "HgN/A
9:00 AM75 °FPartly sunny.7 mph83%30.04 "HgN/A
8:00 AM72 °FPassing clouds.7 mph94%30.01 "HgN/A
7:00 AM72 °FPartly sunny.9 mph88%29.98 "HgN/A
6:00 AM70 °FPassing clouds.8 mph94%29.98 "HgN/A
5:00 AM72 °FPassing clouds.8 mph94%29.95 "HgN/A
3:00 AM73 °FPassing clouds.5 mph89%29.95 "HgN/A
1:00 AM75 °FPassing clouds.5 mph89%29.95 "HgN/A
Weather by CustomWeather, © 2016

See weather overviewHow to use our weather pages